User: anonymous   Login
Location: Arrakis Observatory
(44.1122°N, 95.7153°W)
Time: 03:22:36
(UTC-06:00)
Language:

Coronas F rocket - Orbit

View from above orbital plane
View from above orbital plane
View from above satellite
View from above satellite

Ground track
Ground track

The orbit data is extracted from the following two-line orbital elements,

1 26874U 01032B   14330.84672842  .00019982  00000-0  27733-3 0  8572
2 26874 082.4697 172.4286 0013270 169.4407 190.7129 15.56778432746564
Epoch (UTC): 26 November 2014 20:19:17
Eccentricity: 0.0013270
inclination: 82.4697°
perigee height: 388 km
apogee height: 406 km
right ascension of ascending node: 172.4286°
argument of perigee: 169.4407°
revolutions per day: 15.56778432
mean anomaly at epoch: 190.7129°
orbit number at epoch: 74656

The dashed part of the orbit path shows where the satellite is in the earth's shadow,  

DLR